| time (UTC) | temp F | wind direction | speed knots | gust knots | rain 1hr in | rain 24hr in | rain mn in | humidity % | barometer mb |
| 20260506091647 | 40 | 32 | 0.9 | 0.9 | 0.00 | 0.00 | 0.00 | 82 | 1009.5 |
| 20260506091144 | 40 | 13 | 0.0 | 0.0 | 0.00 | 0.00 | 0.00 | 82 | 1009.4 |
| 20260506090642 | 40 | 8 | 0.0 | 0.0 | 0.00 | 0.00 | 0.00 | 83 | 1009.3 |
| 20260506090138 | 40 | 33 | 0.9 | 1.7 | 0.00 | 0.00 | 0.00 | 83 | 1009.4 |
| 20260506085635 | 41 | 52 | 0.9 | 0.9 | 0.00 | 0.00 | 0.00 | 84 | 1009.5 |
| 20260506085131 | 41 | 19 | 0.9 | 0.9 | 0.00 | 0.00 | 0.00 | 86 | 1009.5 |
| 20260506084628 | 41 | 330 | 0.0 | 0.0 | 0.00 | 0.00 | 0.00 | 86 | 1009.5 |
| 20260506084124 | 41 | 343 | 0.0 | 0.0 | 0.00 | 0.00 | 0.00 | 87 | 1009.5 |
| 20260506083621 | 41 | 350 | 0.9 | 0.9 | 0.00 | 0.00 | 0.00 | 88 | 1009.5 |
| 20260506083119 | 41 | 5 | 1.7 | 1.7 | 0.00 | 0.00 | 0.00 | 91 | 1009.6 |
| 20260506082616 | 41 | 306 | 0.0 | 0.0 | 0.00 | 0.00 | 0.00 | 92 | 1009.6 |
| 20260506082111 | 42 | 21 | 0.0 | 0.9 | 0.00 | 0.00 | 0.00 | 93 | 1009.3 |
| 20260506081610 | 42 | 15 | 0.9 | 0.9 | 0.00 | 0.00 | 0.00 | 93 | 1009.5 |
| 20260506081107 | 42 | 324 | 0.0 | 0.0 | 0.00 | 0.00 | 0.00 | 94 | 1009.7 |
| 20260506080605 | 42 | 316 | 0.0 | 0.0 | 0.00 | 0.00 | 0.00 | 93 | 1009.6 |
| 20260506073044 | 43 | 325 | 0.0 | 0.0 | 0.00 | 0.00 | 0.00 | 91 | 1009.0 |
| 20260506072542 | 44 | 311 | 0.0 | 0.0 | 0.00 | 0.00 | 0.00 | 91 | 1009.2 |
| 20260506072039 | 44 | 313 | 0.0 | 0.0 | 0.00 | 0.00 | 0.00 | 91 | 1009.0 |
| 20260506071537 | 44 | 320 | 0.0 | 0.0 | 0.00 | 0.00 | 0.00 | 90 | 1009.3 |
| 20260506071034 | 44 | 311 | 0.9 | 0.9 | 0.00 | 0.00 | 0.00 | 90 | 1009.1 |
| 20260506070531 | 44 | 300 | 0.0 | 0.9 | 0.00 | 0.00 | 0.00 | 90 | 1008.9 |
| 20260506062509 | 45 | 324 | 0.0 | 0.0 | 0.00 | 0.00 | 0.00 | 86 | 1009.0 |
| 20260506062005 | 45 | 3 | 0.0 | 0.0 | 0.00 | 0.00 | 0.00 | 85 | 1009.1 |
| 20260506061501 | 45 | 309 | 0.0 | 0.0 | 0.00 | 0.00 | 0.00 | 85 | 1009.1 |
| 20260506060959 | 45 | 298 | 0.0 | 0.0 | 0.00 | 0.00 | 0.00 | 84 | 1009.3 |
| 20260506060457 | 46 | 308 | 0.0 | 0.0 | 0.00 | 0.00 | 0.00 | 84 | 1009.2 |
| 20260506050926 | 46 | 290 | 1.7 | 1.7 | 0.00 | 0.00 | 0.00 | 70 | 1008.8 |
| 20260506050424 | 47 | 302 | 0.0 | 0.0 | 0.00 | 0.00 | 0.00 | 67 | 1009.0 |
| 20260506044914 | 47 | 310 | 0.9 | 0.9 | 0.00 | 0.00 | 0.00 | 65 | 1009.1 |
| 20260506044412 | 47 | 299 | 0.0 | 0.0 | 0.00 | 0.00 | 0.00 | 64 | 1008.8 |
| 20260506043909 | 47 | 281 | 0.0 | 0.0 | 0.00 | 0.00 | 0.00 | 65 | 1008.5 |
| 20260506043406 | 47 | 326 | 0.9 | 0.9 | 0.00 | 0.00 | 0.00 | 64 | 1008.6 |
| 20260506042904 | 47 | 302 | 1.7 | 1.7 | 0.00 | 0.00 | 0.00 | 65 | 1008.6 |
| 20260506042403 | 47 | 275 | 0.0 | 0.0 | 0.00 | 0.00 | 0.00 | 66 | 1008.6 |
| 20260506041901 | 47 | 308 | 0.0 | 0.0 | 0.00 | 0.00 | 0.00 | 66 | 1008.6 |
| 20260506041358 | 47 | 267 | 0.0 | 0.0 | 0.00 | 0.00 | 0.00 | 65 | 1008.4 |
| 20260506040855 | 47 | 273 | 0.0 | 0.0 | 0.00 | 0.00 | 0.00 | 65 | 1008.7 |
| 20260506040353 | 47 | 269 | 0.0 | 0.0 | 0.00 | 0.00 | 0.00 | 66 | 1008.7 |
| 20260506035849 | 47 | 285 | 0.0 | 0.9 | 0.00 | 0.01 | 0.01 | 65 | 1008.7 |
| 20260506035346 | 47 | 284 | 0.0 | 0.0 | 0.00 | 0.01 | 0.01 | 65 | 1008.5 |
| 20260506034843 | 47 | 253 | 0.9 | 0.9 | 0.00 | 0.01 | 0.01 | 66 | 1008.8 |
| 20260506034340 | 47 | 288 | 0.0 | 0.0 | 0.00 | 0.01 | 0.01 | 66 | 1008.6 |
| 20260506033837 | 47 | 253 | 0.9 | 0.9 | 0.00 | 0.01 | 0.01 | 65 | 1008.7 |
| 20260506033334 | 47 | 262 | 1.7 | 1.7 | 0.00 | 0.01 | 0.01 | 65 | 1008.4 |
| 20260506032831 | 47 | 301 | 0.0 | 0.0 | 0.00 | 0.01 | 0.01 | 65 | 1008.5 |
| 20260506032328 | 47 | 277 | 0.0 | 0.0 | 0.00 | 0.01 | 0.01 | 64 | 1008.2 |
| 20260506031825 | 47 | 284 | 0.9 | 0.9 | 0.00 | 0.01 | 0.01 | 63 | 1008.5 |
| 20260506031322 | 47 | 267 | 0.0 | 0.9 | 0.00 | 0.01 | 0.01 | 64 | 1008.6 |
| 20260506030820 | 47 | 238 | 0.0 | 0.0 | 0.00 | 0.01 | 0.01 | 62 | 1008.2 |
| 20260506030318 | 47 | 229 | 0.9 | 0.9 | 0.00 | 0.01 | 0.01 | 62 | 1008.4 |
| 20260506025814 | 48 | 278 | 0.0 | 0.0 | 0.00 | 0.01 | 0.01 | 61 | 1008.4 |
| 20260506025311 | 48 | 260 | 0.0 | 0.0 | 0.00 | 0.01 | 0.01 | 61 | 1008.2 |
| 20260506024808 | 48 | 267 | 0.9 | 0.9 | 0.00 | 0.01 | 0.01 | 60 | 1008.1 |
| 20260506024304 | 48 | 292 | 0.0 | 0.9 | 0.00 | 0.01 | 0.01 | 61 | 1008.2 |
| 20260506023800 | 48 | 274 | 0.9 | 0.9 | 0.00 | 0.01 | 0.01 | 60 | 1008.6 |
| 20260506023258 | 48 | 241 | 0.0 | 0.0 | 0.00 | 0.01 | 0.01 | 60 | 1008.0 |
| 20260506022754 | 49 | 235 | 1.7 | 1.7 | 0.00 | 0.01 | 0.01 | 58 | 1008.1 |
| 20260506022252 | 49 | 281 | 0.9 | 0.9 | 0.00 | 0.01 | 0.01 | 59 | 1008.0 |
| 20260506021750 | 49 | 282 | 0.9 | 0.9 | 0.00 | 0.01 | 0.01 | 58 | 1008.2 |
| 20260506021247 | 49 | 284 | 0.9 | 0.9 | 0.00 | 0.01 | 0.01 | 58 | 1008.0 |
| 20260506020743 | 49 | 244 | 0.9 | 1.7 | 0.00 | 0.01 | 0.01 | 57 | 1008.2 |
| 20260506020241 | 49 | 252 | 0.0 | 0.0 | 0.00 | 0.01 | 0.01 | 57 | 1008.1 |
| 20260506015739 | 50 | 257 | 1.7 | 1.7 | 0.00 | 0.01 | 0.01 | 56 | 1007.9 |
| 20260506015236 | 50 | 250 | 1.7 | 1.7 | 0.00 | 0.01 | 0.01 | 56 | 1007.8 |
| 20260506014733 | 50 | 283 | 0.9 | 0.9 | 0.00 | 0.01 | 0.01 | 55 | 1007.9 |
| 20260506014229 | 50 | 277 | 0.0 | 0.0 | 0.00 | 0.01 | 0.01 | 55 | 1007.7 |
| 20260506013726 | 50 | 276 | 5.2 | 6.1 | 0.00 | 0.01 | 0.01 | 54 | 1007.7 |
| 20260506013224 | 50 | 295 | 0.0 | 0.9 | 0.00 | 0.01 | 0.01 | 55 | 1007.6 |
| 20260506012720 | 51 | 265 | 0.0 | 0.9 | 0.00 | 0.01 | 0.01 | 54 | 1007.7 |
| 20260506012217 | 51 | 299 | 0.0 | 0.9 | 0.00 | 0.01 | 0.01 | 54 | 1007.6 |
| 20260506011714 | 51 | 241 | 1.7 | 2.6 | 0.00 | 0.01 | 0.01 | 53 | 1007.3 |
| 20260506011210 | 51 | 308 | 0.0 | 0.9 | 0.00 | 0.01 | 0.01 | 53 | 1007.6 |
| 20260506010709 | 51 | 261 | 0.0 | 0.0 | 0.00 | 0.01 | 0.01 | 53 | 1007.4 |
| 20260506010206 | 51 | 238 | 0.0 | 0.0 | 0.00 | 0.01 | 0.01 | 53 | 1007.4 |
| 20260506005703 | 51 | 238 | 3.5 | 4.3 | 0.00 | 0.01 | 0.01 | 52 | 1007.3 |
| 20260506005200 | 52 | 291 | 0.9 | 1.7 | 0.00 | 0.01 | 0.01 | 51 | 1007.3 |
| 20260506004655 | 51 | 272 | 2.6 | 2.6 | 0.00 | 0.01 | 0.01 | 51 | 1007.2 |
| 20260506004153 | 52 | 272 | 0.0 | 0.9 | 0.00 | 0.01 | 0.01 | 52 | 1007.3 |
| 20260506003649 | 52 | 125 | 0.9 | 0.9 | 0.00 | 0.01 | 0.01 | 51 | 1007.5 |
| 20260506003146 | 52 | 231 | 2.6 | 4.3 | 0.00 | 0.01 | 0.01 | 50 | 1007.3 |
| 20260506002641 | 52 | 212 | 2.6 | 2.6 | 0.00 | 0.01 | 0.01 | 50 | 1007.4 |
| 20260506002138 | 52 | 287 | 2.6 | 4.3 | 0.00 | 0.01 | 0.01 | 50 | 1007.5 |
| 20260506001633 | 52 | 198 | 1.7 | 1.7 | 0.00 | 0.01 | 0.01 | 49 | 1007.4 |
| 20260506001131 | 52 | 247 | 3.5 | 4.3 | 0.00 | 0.01 | 0.01 | 48 | 1007.3 |
| 20260506000628 | 53 | 258 | 0.9 | 0.9 | 0.00 | 0.01 | 0.01 | 49 | 1007.3 |
| 20260506000125 | 53 | 268 | 3.5 | 4.3 | 0.00 | 0.01 | 0.01 | 48 | 1007.1 |
| 20260505235624 | 53 | 292 | 4.3 | 7.0 | 0.00 | 0.01 | 0.01 | 47 | 1007.0 |
| 20260505235120 | 53 | 244 | 4.3 | 6.1 | 0.00 | 0.01 | 0.01 | 47 | 1006.9 |
| 20260505234617 | 53 | 229 | 5.2 | 6.1 | 0.00 | 0.01 | 0.01 | 47 | 1006.8 |
| 20260505234114 | 53 | 307 | 1.7 | 1.7 | 0.00 | 0.01 | 0.01 | 49 | 1006.8 |
| 20260505233611 | 53 | 323 | 1.7 | 2.6 | 0.00 | 0.01 | 0.01 | 48 | 1006.8 |
| 20260505233109 | 53 | 248 | 1.7 | 1.7 | 0.00 | 0.01 | 0.01 | 47 | 1006.6 |
| 20260505232606 | 54 | 335 | 6.1 | 7.0 | 0.00 | 0.01 | 0.01 | 46 | 1006.5 |
| 20260505232104 | 54 | 205 | 5.2 | 7.0 | 0.00 | 0.01 | 0.01 | 46 | 1006.8 |
| 20260505231600 | 54 | 227 | 2.6 | 4.3 | 0.00 | 0.01 | 0.01 | 45 | 1006.7 |
| 20260505231059 | 54 | 233 | 4.3 | 5.2 | 0.00 | 0.01 | 0.01 | 45 | 1006.7 |
| 20260505230556 | 54 | 269 | 6.1 | 7.8 | 0.00 | 0.01 | 0.01 | 44 | 1006.6 |
| 20260505230052 | 55 | 261 | 4.3 | 5.2 | 0.00 | 0.01 | 0.01 | 43 | 1006.4 |
| 20260505225549 | 55 | 271 | 2.6 | 2.6 | 0.00 | 0.01 | 0.01 | 43 | 1006.6 |
| 20260505225045 | 55 | 291 | 0.9 | 0.9 | 0.00 | 0.01 | 0.01 | 43 | 1006.7 |
| 20260505224543 | 55 | 289 | 2.6 | 2.6 | 0.00 | 0.01 | 0.01 | 43 | 1006.6 |
| 20260505224040 | 55 | 277 | 2.6 | 4.3 | 0.00 | 0.01 | 0.01 | 42 | 1006.7 |
| 20260505223537 | 55 | 209 | 2.6 | 2.6 | 0.00 | 0.01 | 0.01 | 42 | 1006.8 |
| 20260505223033 | 55 | 276 | 7.8 | 11.3 | 0.00 | 0.01 | 0.01 | 41 | 1007.0 |
| 20260505222529 | 56 | 324 | 8.7 | 11.3 | 0.00 | 0.01 | 0.01 | 41 | 1006.7 |
| 20260505222026 | 56 | 238 | 0.9 | 1.7 | 0.00 | 0.01 | 0.01 | 43 | 1006.7 |
| 20260505221523 | 56 | 311 | 2.6 | 4.3 | 0.00 | 0.01 | 0.01 | 42 | 1006.6 |
| 20260505221019 | 56 | 249 | 4.3 | 6.1 | 0.00 | 0.01 | 0.01 | 43 | 1006.5 |
| 20260505220517 | 56 | 265 | 2.6 | 2.6 | 0.00 | 0.01 | 0.01 | 42 | 1006.7 |
| 20260505220015 | 56 | 256 | 6.1 | 7.8 | 0.00 | 0.01 | 0.01 | 41 | 1006.8 |
| 20260505215512 | 56 | 243 | 9.6 | 11.3 | 0.00 | 0.01 | 0.01 | 42 | 1006.7 |
| 20260505215010 | 57 | 249 | 2.6 | 4.3 | 0.00 | 0.01 | 0.01 | 42 | 1006.5 |
| 20260505214508 | 57 | 206 | 1.7 | 1.7 | 0.00 | 0.01 | 0.01 | 43 | 1006.7 |
| 20260505214004 | 56 | 319 | 4.3 | 6.1 | 0.00 | 0.01 | 0.01 | 42 | 1006.7 |
| 20260505213502 | 57 | 236 | 1.7 | 2.6 | 0.00 | 0.01 | 0.01 | 44 | 1006.7 |
| 20260505212958 | 57 | 226 | 5.2 | 7.8 | 0.00 | 0.01 | 0.01 | 42 | 1006.4 |
| 20260505212455 | 57 | 285 | 1.7 | 2.6 | 0.00 | 0.01 | 0.01 | 43 | 1006.6 |
| 20260505211952 | 57 | 290 | 1.7 | 2.6 | 0.00 | 0.01 | 0.01 | 44 | 1006.6 |
| 20260505211449 | 57 | 246 | 2.6 | 5.2 | 0.00 | 0.01 | 0.01 | 43 | 1006.8 |
| 20260505210945 | 57 | 259 | 2.6 | 4.3 | 0.00 | 0.01 | 0.01 | 44 | 1006.7 |
| 20260505210443 | 57 | 282 | 1.7 | 1.7 | 0.00 | 0.01 | 0.01 | 44 | 1006.7 |
| 20260505205939 | 57 | 198 | 0.9 | 1.7 | 0.00 | 0.01 | 0.01 | 46 | 1006.6 |
| 20260505205438 | 57 | 294 | 3.5 | 6.1 | 0.00 | 0.01 | 0.01 | 45 | 1006.6 |
| 20260505204934 | 57 | 236 | 2.6 | 4.3 | 0.00 | 0.01 | 0.01 | 45 | 1006.6 |
| 20260505204432 | 58 | 247 | 3.5 | 5.2 | 0.00 | 0.01 | 0.01 | 49 | 1006.5 |
| 20260505203929 | 57 | 229 | 1.7 | 1.7 | 0.00 | 0.01 | 0.01 | 50 | 1006.5 |
| 20260505203425 | 57 | 307 | 2.6 | 2.6 | 0.00 | 0.01 | 0.01 | 49 | 1006.5 |
| 20260505202922 | 58 | 199 | 1.7 | 2.6 | 0.00 | 0.01 | 0.01 | 48 | 1006.5 |
| 20260505202418 | 57 | 241 | 4.3 | 5.2 | 0.00 | 0.01 | 0.01 | 52 | 1006.8 |
| 20260505201915 | 57 | 211 | 1.7 | 1.7 | 0.00 | 0.01 | 0.01 | 55 | 1006.5 |
| 20260505201412 | 57 | 291 | 5.2 | 6.1 | 0.00 | 0.01 | 0.01 | 53 | 1006.7 |
| 20260505200910 | 57 | 208 | 4.3 | 7.8 | 0.00 | 0.01 | 0.01 | 54 | 1006.9 |
| 20260505200407 | 57 | 237 | 2.6 | 4.3 | 0.00 | 0.01 | 0.01 | 54 | 1006.8 |
| 20260505195902 | 57 | 219 | 4.3 | 5.2 | 0.00 | 0.01 | 0.01 | 51 | 1006.4 |
| 20260505195400 | 57 | 253 | 3.5 | 5.2 | 0.00 | 0.01 | 0.01 | 51 | 1006.6 |
| 20260505194857 | 57 | 233 | 2.6 | 2.6 | 0.00 | 0.01 | 0.01 | 52 | 1006.8 |
| 20260505194354 | 57 | 281 | 5.2 | 6.1 | 0.00 | 0.01 | 0.01 | 50 | 1006.8 |
| 20260505193849 | 57 | 354 | 1.7 | 1.7 | 0.00 | 0.01 | 0.01 | 51 | 1006.4 |
| 20260505193347 | 57 | 264 | 1.7 | 2.6 | 0.00 | 0.01 | 0.01 | 52 | 1006.6 |
| 20260505192844 | 57 | 240 | 1.7 | 2.6 | 0.00 | 0.01 | 0.01 | 52 | 1006.5 |
| 20260505192343 | 57 | 230 | 4.3 | 6.1 | 0.00 | 0.01 | 0.01 | 53 | 1006.6 |
| 20260505191840 | 57 | 248 | 4.3 | 5.2 | 0.00 | 0.01 | 0.01 | 54 | 1006.5 |
| 20260505191338 | 57 | 221 | 2.6 | 4.3 | 0.00 | 0.01 | 0.01 | 55 | 1006.8 |
| 20260505190835 | 58 | 266 | 5.2 | 7.0 | 0.00 | 0.01 | 0.01 | 54 | 1006.6 |
| 20260505190330 | 57 | 214 | 2.6 | 4.3 | 0.00 | 0.01 | 0.01 | 55 | 1006.4 |
| 20260505185826 | 59 | 177 | 1.7 | 1.7 | 0.00 | 0.01 | 0.01 | 58 | 1006.7 |
| 20260505185322 | 57 | 256 | 0.0 | 0.9 | 0.00 | 0.01 | 0.01 | 59 | 1006.6 |
| 20260505184819 | 57 | 224 | 1.7 | 4.3 | 0.00 | 0.01 | 0.01 | 60 | 1006.4 |
| 20260505184316 | 56 | 174 | 4.3 | 7.0 | 0.00 | 0.01 | 0.01 | 61 | 1006.7 |
| 20260505183813 | 56 | 272 | 2.6 | 5.2 | 0.00 | 0.01 | 0.01 | 60 | 1006.5 |
| 20260505183310 | 57 | 261 | 1.7 | 2.6 | 0.00 | 0.01 | 0.01 | 61 | 1006.2 |
| 20260505182807 | 56 | 307 | 2.6 | 4.3 | 0.00 | 0.01 | 0.01 | 62 | 1006.3 |
| 20260505182306 | 56 | 291 | 4.3 | 5.2 | 0.00 | 0.01 | 0.01 | 61 | 1006.3 |
| 20260505181800 | 56 | 254 | 1.7 | 1.7 | 0.00 | 0.01 | 0.01 | 70 | 1006.3 |
| 20260505181257 | 56 | 230 | 0.9 | 1.7 | 0.00 | 0.01 | 0.01 | 70 | 1006.2 |
| 20260505180754 | 56 | 223 | 0.9 | 1.7 | 0.00 | 0.01 | 0.01 | 69 | 1006.2 |
| 20260505180250 | 56 | 280 | 6.1 | 8.7 | 0.00 | 0.01 | 0.01 | 67 | 1006.3 |
| 20260505175747 | 56 | 245 | 0.9 | 1.7 | 0.00 | 0.01 | 0.01 | 69 | 1006.1 |
| 20260505175243 | 55 | 277 | 0.9 | 1.7 | 0.00 | 0.01 | 0.01 | 71 | 1006.1 |
| 20260505174740 | 54 | 315 | 4.3 | 6.1 | 0.00 | 0.01 | 0.01 | 72 | 1006.0 |
| 20260505174237 | 54 | 286 | 2.6 | 4.3 | 0.00 | 0.01 | 0.01 | 72 | 1006.1 |
| 20260505173733 | 54 | 227 | 4.3 | 5.2 | 0.00 | 0.01 | 0.01 | 72 | 1005.8 |
| 20260505173230 | 54 | 227 | 1.7 | 2.6 | 0.00 | 0.01 | 0.01 | 73 | 1006.1 |
| 20260505172727 | 54 | 213 | 2.6 | 2.6 | 0.00 | 0.01 | 0.01 | 74 | 1006.3 |
| 20260505172224 | 54 | 200 | 0.9 | 0.9 | 0.00 | 0.01 | 0.01 | 73 | 1006.3 |
| 20260505171724 | 54 | 253 | 0.0 | 0.0 | 0.00 | 0.01 | 0.01 | 74 | 1006.0 |
| 20260505171221 | 53 | 293 | 0.9 | 1.7 | 0.00 | 0.01 | 0.01 | 73 | 1006.2 |
| 20260505170718 | 54 | 256 | 1.7 | 1.7 | 0.00 | 0.01 | 0.01 | 73 | 1006.1 |
| 20260505170215 | 53 | 308 | 0.0 | 0.0 | 0.00 | 0.01 | 0.01 | 73 | 1006.0 |
| 20260505165710 | 54 | 279 | 0.0 | 0.0 | 0.00 | 0.01 | 0.01 | 73 | 1006.0 |
| 20260505165206 | 53 | 338 | 0.0 | 0.0 | 0.00 | 0.01 | 0.01 | 74 | 1006.0 |
| 20260505164702 | 54 | 1 | 0.0 | 0.9 | 0.00 | 0.01 | 0.01 | 74 | 1006.3 |
| 20260505164159 | 53 | 261 | 1.7 | 2.6 | 0.00 | 0.01 | 0.01 | 75 | 1006.4 |
| 20260505163657 | 52 | 273 | 1.7 | 2.6 | 0.00 | 0.01 | 0.01 | 77 | 1006.4 |
| 20260505163155 | 52 | 274 | 0.0 | 0.0 | 0.00 | 0.01 | 0.01 | 78 | 1006.5 |
| 20260505162653 | 53 | 268 | 1.7 | 2.6 | 0.00 | 0.01 | 0.01 | 77 | 1006.1 |
| 20260505162150 | 52 | 221 | 0.9 | 1.7 | 0.00 | 0.01 | 0.01 | 80 | 1006.4 |
| 20260505161646 | 51 | 216 | 0.9 | 0.9 | 0.00 | 0.01 | 0.01 | 81 | 1006.4 |
| 20260505161144 | 51 | 274 | 0.9 | 1.7 | 0.00 | 0.01 | 0.01 | 82 | 1006.3 |
| 20260505160642 | 51 | 273 | 2.6 | 2.6 | 0.00 | 0.01 | 0.01 | 80 | 1006.4 |
| 20260505160139 | 51 | 320 | 0.9 | 0.9 | 0.00 | 0.01 | 0.01 | 81 | 1006.3 |
| 20260505153118 | 50 | 267 | 0.0 | 0.0 | 0.00 | 0.01 | 0.01 | 81 | 1006.9 |
| 20260505152615 | 50 | 224 | 0.9 | 0.9 | 0.00 | 0.01 | 0.01 | 83 | 1006.5 |
| 20260505152110 | 50 | 293 | 0.0 | 0.0 | 0.00 | 0.01 | 0.01 | 85 | 1006.7 |
| 20260505151606 | 49 | 287 | 0.0 | 0.0 | 0.00 | 0.01 | 0.01 | 85 | 1006.3 |
| 20260505151104 | 49 | 287 | 0.0 | 0.0 | 0.00 | 0.01 | 0.01 | 87 | 1006.4 |
| 20260505150600 | 49 | 269 | 0.0 | 0.0 | 0.00 | 0.01 | 0.01 | 87 | 1006.5 |
| 20260505140525 | 49 | 284 | 0.0 | 0.0 | 0.00 | 0.00 | 0.00 | 76 | 1006.0 |
| 20260505124938 | 50 | 44 | 0.9 | 0.9 | 0.00 | 0.00 | 0.00 | 70 | 1004.4 |
| 20260505124435 | 50 | 357 | 1.7 | 1.7 | 0.00 | 0.00 | 0.00 | 69 | 1004.3 |
| 20260505123931 | 50 | 67 | 0.0 | 0.0 | 0.00 | 0.00 | 0.00 | 70 | 1004.0 |
| 20260505123428 | 50 | 77 | 0.9 | 1.7 | 0.00 | 0.00 | 0.00 | 70 | 1004.2 |
| 20260505122924 | 49 | 347 | 1.7 | 2.6 | 0.00 | 0.00 | 0.00 | 70 | 1004.3 |
| 20260505122422 | 49 | 76 | 0.9 | 0.9 | 0.00 | 0.00 | 0.00 | 70 | 1004.2 |
| 20260505121918 | 49 | 57 | 0.9 | 0.9 | 0.00 | 0.00 | 0.00 | 71 | 1004.0 |
| 20260505121415 | 49 | 69 | 0.0 | 0.0 | 0.00 | 0.00 | 0.00 | 71 | 1003.9 |
| 20260505120911 | 49 | 47 | 0.0 | 0.0 | 0.00 | 0.00 | 0.00 | 71 | 1003.7 |
| 20260505120407 | 49 | 59 | 0.9 | 0.9 | 0.00 | 0.00 | 0.00 | 69 | 1003.7 |
| 20260505115906 | 49 | 68 | 0.9 | 0.9 | 0.00 | 0.00 | 0.00 | 70 | 1003.7 |
| 20260505115403 | 49 | 352 | 2.6 | 2.6 | 0.00 | 0.00 | 0.00 | 70 | 1004.0 |
| 20260505114901 | 49 | 44 | 1.7 | 1.7 | 0.00 | 0.00 | 0.00 | 70 | 1003.4 |
| 20260505114357 | 49 | 24 | 0.9 | 0.9 | 0.00 | 0.00 | 0.00 | 70 | 1004.0 |
| 20260505113854 | 49 | 16 | 2.6 | 4.3 | 0.00 | 0.00 | 0.00 | 69 | 1003.5 |
| 20260505113350 | 50 | 37 | 1.7 | 1.7 | 0.00 | 0.00 | 0.00 | 69 | 1003.5 |
| 20260505112846 | 49 | 75 | 0.9 | 0.9 | 0.00 | 0.00 | 0.00 | 69 | 1003.2 |
| 20260505112344 | 49 | 71 | 0.0 | 0.9 | 0.00 | 0.00 | 0.00 | 71 | 1003.1 |
| 20260505111840 | 49 | 42 | 1.7 | 1.7 | 0.00 | 0.00 | 0.00 | 71 | 1002.9 |
| 20260505111335 | 48 | 78 | 0.0 | 0.0 | 0.00 | 0.00 | 0.00 | 74 | 1002.9 |
| 20260505110831 | 48 | 36 | 0.9 | 1.7 | 0.00 | 0.00 | 0.00 | 76 | 1002.8 |
| 20260505110329 | 48 | 299 | 2.6 | 4.3 | 0.00 | 0.00 | 0.00 | 76 | 1002.4 |
| 20260505101804 | 49 | 347 | 0.0 | 0.9 | 0.00 | 0.00 | 0.00 | 85 | 1001.8 |
| 20260505101258 | 49 | 39 | 2.6 | 2.6 | 0.00 | 0.00 | 0.00 | 86 | 1001.3 |
| 20260505100755 | 49 | 29 | 3.5 | 5.2 | 0.00 | 0.00 | 0.00 | 87 | 1001.3 |
| 20260505100252 | 50 | 347 | 3.5 | 4.3 | 0.00 | 0.00 | 0.00 | 87 | 1001.2 |
| 20260505095748 | 50 | 273 | 2.6 | 4.3 | 0.00 | 0.00 | 0.00 | 86 | 1001.0 |
| 20260505095246 | 52 | 334 | 2.6 | 2.6 | 0.00 | 0.00 | 0.00 | 85 | 1000.9 |
| 20260505094741 | 54 | 306 | 1.7 | 1.7 | 0.00 | 0.00 | 0.00 | 85 | 1000.5 |
| 20260505094238 | 57 | 315 | 4.3 | 6.1 | 0.00 | 0.00 | 0.00 | 89 | 1000.3 |
| 20260505093734 | 57 | 280 | 3.5 | 4.3 | 0.00 | 0.00 | 0.00 | 89 | 1000.4 |
| 20260505093231 | 57 | 230 | 1.7 | 1.7 | 0.00 | 0.00 | 0.00 | 88 | 1000.2 |
| 20260505092728 | 57 | 248 | 3.5 | 4.3 | 0.00 | 0.00 | 0.00 | 88 | 1000.0 |
| 20260505092227 | 57 | 291 | 1.7 | 1.7 | 0.00 | 0.00 | 0.00 | 88 | 999.8 |